Regional Weather Roundup
Issued by NWS Portland, ME

Home | Current Version | Previous Version | Text Only | Print | Product List | Glossary On
Versions: 1 2 3 4 5 6 7 8 9 10 11 12 13 14 15 16 17 18 19 20 21 22 23 24 25 26 27 28 29 30 31 32 33 34 35 36 37 38 39 40 41 42 43 44 45 46 47 48 49 50
000
ASUS41 KGYX 240610
RWRGYX
WEATHER ROUNDUP FOR MAINE AND NEW HAMPSHIRE
NATIONAL WEATHER SERVICE GRAY ME
200 AM EDT WED MAY 24 2017

MEZ002-005-006-010-012-015-018-020-021-024-026-027-029-240700-
MAINE

CITY           SKY/WX    TMP DP  RH WIND       PRES   REMARKS
PORTLAND       CLOUDY    51  48  89 CALM      29.79F
6HR MIN TEMP:  50; 6HR MAX TEMP:  58;

SANFORD        MOCLDY    47  46  97 CALM      29.80S
BAR HARBOR     CLEAR     45  44  97 CALM      29.80F
WISCASSET      CLOUDY    48  46  93 CALM      29.81F
6HR MIN TEMP:  48; 6HR MAX TEMP:  60;

ROCKLAND       CLOUDY    48  47  96 CALM      29.80F
FRYEBURG       PTCLDY    48  48 100 CALM      29.81F
6HR MIN TEMP:  47; 6HR MAX TEMP:  63;

LEWISTONAUBURN CLOUDY    51  50  96 CALM      29.80F
AUGUSTA        CLOUDY    52  49  89 CALM      29.81S
6HR MIN TEMP:  52; 6HR MAX TEMP:  67;

WATERVILLE     CLOUDY    52  47  83 N7        29.78S
BANGOR         PTCLDY    48  47  96 CALM      29.80S
6HR MIN TEMP:  47; 6HR MAX TEMP:  61;

GREENVILLE       N/A     49  44  83 CALM      29.79F
6HR MIN TEMP:  49; 6HR MAX TEMP:  59;

MILLINOCKET    CLEAR     46  45  96 CALM      29.81S
6HR MIN TEMP:  46; 6HR MAX TEMP:  65;

HOULTON        MOCLDY    43  42  97 CALM      29.78R
6HR MIN TEMP:  40; 6HR MAX TEMP:  63;

PRESQUE ISLE   CLEAR     42  41  96 CALM      29.79R
6HR MIN TEMP:  41; 6HR MAX TEMP:  61;

FRENCHVILLE    CLEAR     50  42  74 W9        29.76R
6HR MIN TEMP:  50; 6HR MAX TEMP:  58;

CARIBOU        PTCLDY    49  42  77 SW5       29.77R
6HR MIN TEMP:  47; 6HR MAX TEMP:  61;

$$

NHZ002-005-008-009-011-012-014-240700-
NEW HAMPSHIRE

CITY           SKY/WX    TMP DP  RH WIND       PRES   REMARKS
PORTSMOUTH     CLOUDY    51  50  96 CALM      29.78F
ROCHESTER      CLOUDY    52  48  86 CALM      29.78F
6HR MIN TEMP:  51; 6HR MAX TEMP:  62;

NASHUA         CLOUDY    54  53  97 CALM      29.81F
MANCHESTER     MOCLDY    55  50  83 CALM      29.79F
6HR MIN TEMP:  55; 6HR MAX TEMP:  66;

CONCORD        MOCLDY    51  48  89 CALM      29.80F
6HR MIN TEMP:  50; 6HR MAX TEMP:  64;

LACONIA        CLOUDY    51  50  96 CALM      29.80F
PLYMOUTH       FAIR      48  47  97 CALM      29.81F
BERLIN         CLOUDY    49  45  86 CALM      29.82F
6HR MIN TEMP:  46; 6HR MAX TEMP:  63;

WHITEFIELD     CLOUDY    50  46  86 CALM      29.81F
6HR MIN TEMP:  50; 6HR MAX TEMP:  60;

JAFFREY        CLOUDY    50  50 100 CALM      29.83S
6HR MIN TEMP:  50; 6HR MAX TEMP:  60;

KEENE          MOCLDY    50  50 100 CALM      29.82S FOG
LEBANON        PTCLDY    50  49  96 CALM      29.80F
6HR MIN TEMP:  50; 6HR MAX TEMP:  64;

MT WASHINGTON  FOG       39  39 100 NW22        N/A  VSB 1/16
6HR MIN TEMP:  38; 6HR MAX TEMP:  40;

$$

VTZ005-007-008-240700-
VERMONT

CITY           SKY/WX    TMP DP  RH WIND       PRES   REMARKS
ST JOHNSBURY     N/A     52  50  93 MISG      29.79F
MONTPELIER     CLOUDY    48  47  96 CALM      29.84F
BURLINGTON     CLOUDY    56  52  86 CALM      29.78F
$$

MAZ007-012-024-CTZ003-RIZ002-NYZ038-NYZ072-240700-
SOUTHERN NEW ENGLAND AND NY

CITY           SKY/WX    TMP DP  RH WIND       PRES   REMARKS
BOSTON         CLOUDY    57  54  89 S6        29.80F
WORCESTER      CLOUDY    57  46  66 CALM      29.80F
NANTUCKET      CLOUDY    52  50  93 SE3       29.81F
PROVIDENCE     CLOUDY    56  54  93 S5        29.80F
HARTFORD       CLOUDY    54  53  97 N3        29.78F
ALBANY         CLOUDY    56  50  80 CALM      29.78F
NEW YORK CITY  CLOUDY    60  51  72 NE6       29.74F
$$

ANZ081-ANZ082-ANZ150-NHZ014-MEZ023>029-240700-
COASTAL MARINE OBSERVATIONS

STATION/POSITION TIME  TEMP    WIND        PRES    WAVE
                       AIR SEA DIR/SP/G            HT/PER
                 (UTC) (F)     (DEG/KT/KT) (MB)    (FT/S)
MOUNT DESERT ROC 0600   47                 1009.3S
ISLE OF SHOALS   0500   56     240/  7/  7 1009.0F
JEFFREYS LEDGE   0506      50                N/A     2/ 6
CASHES LEDGE BUO 0550   49 49              1009.3F   2/ 6
GEORGES BANK BUO 0450   47 45              1009.7    5/ 7
$$

.............KEY..............
   WCI - WIND CHILL
   TC  - TEMPERATURE IN CELSIUS
   VSB - VISIBILITY IN MILES
   HX  - HEAT INDEX
   FAIR- INDICATES FEW OR NO CLOUDS BELOW 12,000 FT, WITH NO
         SIGNIFICANT WEATHER AND/OR OBSTRUCTIONS TO VISIBILITY.





USA.gov is the U.S. government's official web portal to all federal, state and local government web resources and services.